Volver al catálogo

STARLINK-11438

ActivoComunicacionesVLEO
NORAD 62888·PAYLOAD·🇺🇸 United States

Lanzado Feb 4, 2025 desde Cape Canaveral Space Force Station

Loading…

Próximos Pases (próximas 24 horas)

TLE

ActualizadoSource: CelesTrak SupGP

Época: Sep 15, 2026, 02:31 UTC

1 62888C 25024K   26258.10534722  .00073424  00000+0  57149-3 0  2588
2 62888  43.0002 119.4253 0001631 263.1358 328.3846 15.70751760    11

Sigue STARLINK-11438 en tiempo real con AllMySat

Download on the App Store